Time,TemperatureF,DewpointF,PressureIn,WindDirection,WindDirectionDegrees,WindSpeedMPH,WindSpeedGustMPH,Humidity,HourlyPrecipIn,Conditions,Clouds,dailyrainin,SoftwareType,DateUTC
2013-03-01 00:13:00,5.4,-3.0,30.82,WNW,283,1.0,3.0,68,0.00,,,0.00,weatherlink.com 1.10,2013-03-01 05:13:00,
2013-03-01 00:28:00,6.3,-1.0,30.83,WNW,293,0.0,0.0,72,0.00,,,0.00,weatherlink.com 1.10,2013-03-01 05:28:00,
2013-03-01 00:43:00,6.5,-1.0,30.83,NW,313,0.0,3.0,71,0.00,,,0.00,weatherlink.com 1.10,2013-03-01 05:43:00,
2013-03-01 00:58:00,6.5,0.0,30.83,West,260,0.0,0.0,73,0.00,,,0.00,weatherlink.com 1.10,2013-03-01 05:58:00,
2013-03-01 01:13:00,8.8,0.0,30.84,NW,325,0.0,3.0,68,0.00,,,0.00,weatherlink.com 1.10,2013-03-01 06:13:00,
2013-03-01 01:28:00,8.1,0.0,30.83,ENE,58,0.0,1.0,70,0.00,,,0.00,weatherlink.com 1.10,2013-03-01 06:28:00,
2013-03-01 01:43:00,9.5,2.0,30.83,West,279,2.0,4.0,72,0.00,,,0.00,weatherlink.com 1.10,2013-03-01 06:43:00,
2013-03-01 01:58:00,7.6,0.0,30.82,NW,305,1.0,3.0,72,0.00,,,0.00,weatherlink.com 1.10,2013-03-01 06:58:00,
2013-03-01 02:13:00,7.7,0.0,30.81,SE,133,1.0,4.0,72,0.00,,,0.00,weatherlink.com 1.10,2013-03-01 07:13:00,
2013-03-01 02:28:00,3.7,-3.0,30.81,SE,125,1.0,2.0,74,0.00,,,0.00,weatherlink.com 1.10,2013-03-01 07:28:00,
2013-03-01 02:44:00,2.8,-3.0,30.82,ENE,62,0.0,1.0,78,0.00,,,0.00,weatherlink.com 1.10,2013-03-01 07:44:00,
2013-03-01 02:59:00,7.7,4.0,30.82,NNW,327,2.0,6.0,86,0.00,,,0.00,weatherlink.com 1.10,2013-03-01 07:59:00,
2013-03-01 03:14:00,13.0,6.0,30.82,NW,311,6.0,9.0,74,0.00,,,0.00,weatherlink.com 1.10,2013-03-01 08:14:00,
2013-03-01 03:29:00,14.0,6.0,30.82,NNW,328,7.0,9.0,71,0.00,,,0.00,weatherlink.com 1.10,2013-03-01 08:29:00,
2013-03-01 03:44:00,17.7,10.0,30.82,WNW,297,9.0,11.0,72,0.00,,,0.00,weatherlink.com 1.10,2013-03-01 08:44:00,
2013-03-01 03:59:00,18.8,11.0,30.82,NW,308,10.0,13.0,70,0.00,,,0.00,weatherlink.com 1.10,2013-03-01 08:59:00,
2013-03-01 04:14:00,17.4,9.0,30.81,WNW,294,9.0,12.0,70,0.00,,,0.00,weatherlink.com 1.10,2013-03-01 09:14:00,
2013-03-01 04:29:00,20.0,11.0,30.80,WNW,285,9.0,16.0,69,0.00,,,0.00,weatherlink.com 1.10,2013-03-01 09:29:00,
2013-03-01 04:44:00,20.8,12.0,30.78,WNW,288,11.0,20.0,68,0.00,,,0.00,weatherlink.com 1.10,2013-03-01 09:44:00,
2013-03-01 04:59:00,20.0,12.0,30.78,NW,312,15.0,18.0,70,0.00,,,0.00,weatherlink.com 1.10,2013-03-01 09:59:00,
2013-03-01 05:14:00,20.5,12.0,30.77,WNW,288,14.0,19.0,69,0.00,,,0.00,weatherlink.com 1.10,2013-03-01 10:14:00,
2013-03-01 05:29:00,20.5,12.0,30.76,WNW,302,10.0,22.0,69,0.00,,,0.00,weatherlink.com 1.10,2013-03-01 10:29:00,
2013-03-01 05:44:00,20.8,12.0,30.74,WNW,302,15.0,22.0,69,0.00,,,0.00,weatherlink.com 1.10,2013-03-01 10:44:00,
2013-03-01 05:59:00,19.5,11.0,30.74,NW,319,10.0,17.0,70,0.00,,,0.00,weatherlink.com 1.10,2013-03-01 10:59:00,
2013-03-01 06:15:00,19.8,11.0,30.73,NW,316,12.0,18.0,69,0.00,,,0.00,weatherlink.com 1.10,2013-03-01 11:15:00,
2013-03-01 06:30:00,20.5,11.0,30.72,NW,307,15.0,21.0,68,0.00,,,0.00,weatherlink.com 1.10,2013-03-01 11:30:00,
2013-03-01 06:45:00,20.6,12.0,30.73,NW,316,14.0,21.0,68,0.00,,,0.00,weatherlink.com 1.10,2013-03-01 11:45:00,
2013-03-01 07:00:00,19.9,11.0,30.73,NNW,330,10.0,18.0,68,0.00,,,0.00,weatherlink.com 1.10,2013-03-01 12:00:00,
2013-03-01 07:15:00,20.4,11.0,30.74,NW,322,11.0,18.0,68,0.00,,,0.00,weatherlink.com 1.10,2013-03-01 12:15:00,
2013-03-01 07:30:00,20.5,11.0,30.73,NNW,332,11.0,19.0,68,0.00,,,0.00,weatherlink.com 1.10,2013-03-01 12:30:00,
2013-03-01 07:45:00,21.1,12.0,30.72,NW,308,13.0,21.0,69,0.00,,,0.00,weatherlink.com 1.10,2013-03-01 12:45:00,
2013-03-01 08:00:00,21.6,13.0,30.72,NW,314,11.0,23.0,68,0.00,,,0.00,weatherlink.com 1.10,2013-03-01 13:00:00,
2013-03-01 08:15:00,21.8,13.0,30.71,WNW,288,17.0,23.0,68,0.00,,,0.00,weatherlink.com 1.10,2013-03-01 13:15:00,
2013-03-01 08:30:00,22.1,13.0,30.70,NW,314,13.0,23.0,68,0.00,,,0.00,weatherlink.com 1.10,2013-03-01 13:30:00,
2013-03-01 08:45:00,22.2,13.0,30.70,NW,312,12.0,25.0,69,0.00,,,0.00,weatherlink.com 1.10,2013-03-01 13:45:00,
2013-03-01 09:00:00,22.6,14.0,30.70,NW,312,14.0,24.0,69,0.00,,,0.00,weatherlink.com 1.10,2013-03-01 14:00:00,
2013-03-01 09:15:00,23.0,14.0,30.69,NW,314,12.0,27.0,68,0.00,,,0.00,weatherlink.com 1.10,2013-03-01 14:15:00,
2013-03-01 09:31:00,23.5,14.0,30.68,West,281,10.0,24.0,67,0.00,,,0.00,weatherlink.com 1.10,2013-03-01 14:31:00,
2013-03-01 09:46:00,24.4,14.0,30.68,NW,308,15.0,28.0,66,0.00,,,0.00,weatherlink.com 1.10,2013-03-01 14:46:00,
2013-03-01 10:01:00,25.7,15.0,30.68,NW,308,12.0,25.0,64,0.00,,,0.00,weatherlink.com 1.10,2013-03-01 15:01:00,
2013-03-01 10:16:00,26.3,15.0,30.68,WNW,296,15.0,24.0,63,0.00,,,0.00,weatherlink.com 1.10,2013-03-01 15:16:00,
2013-03-01 10:31:00,26.8,15.0,30.67,NNW,328,17.0,24.0,61,0.00,,,0.00,weatherlink.com 1.10,2013-03-01 15:31:00,
2013-03-01 10:46:00,27.4,15.0,30.66,NW,309,9.0,22.0,59,0.00,,,0.00,weatherlink.com 1.10,2013-03-01 15:46:00,
2013-03-01 11:01:00,28.0,15.0,30.65,NNW,328,13.0,21.0,58,0.00,,,0.00,weatherlink.com 1.10,2013-03-01 16:01:00,
2013-03-01 11:16:00,29.0,15.0,30.65,NW,312,22.0,23.0,57,0.00,,,0.00,weatherlink.com 1.10,2013-03-01 16:16:00,
2013-03-01 11:31:00,29.4,15.0,30.64,WNW,285,13.0,25.0,56,0.00,,,0.00,weatherlink.com 1.10,2013-03-01 16:31:00,
2013-03-01 11:46:00,29.9,16.0,30.63,NNW,330,20.0,23.0,56,0.00,,,0.00,weatherlink.com 1.10,2013-03-01 16:46:00,
2013-03-01 12:01:00,30.1,16.0,30.63,NW,308,14.0,24.0,56,0.00,,,0.00,weatherlink.com 1.10,2013-03-01 17:01:00,
2013-03-01 12:16:00,30.6,16.0,30.63,WNW,290,14.0,27.0,55,0.00,,,0.00,weatherlink.com 1.10,2013-03-01 17:16:00,
2013-03-01 12:31:00,31.2,16.0,30.62,NW,319,20.0,27.0,53,0.00,,,0.00,weatherlink.com 1.10,2013-03-01 17:31:00,
2013-03-01 12:47:00,31.7,17.0,30.62,NW,325,13.0,23.0,54,0.00,,,0.00,weatherlink.com 1.10,2013-03-01 17:47:00,
2013-03-01 13:02:00,32.5,17.0,30.62,NW,310,10.0,25.0,54,0.00,,,0.00,weatherlink.com 1.10,2013-03-01 18:02:00,
2013-03-01 13:17:00,33.0,17.0,30.61,NW,312,13.0,27.0,51,0.00,,,0.00,weatherlink.com 1.10,2013-03-01 18:17:00,
2013-03-01 13:32:00,33.9,17.0,30.61,NNW,342,13.0,21.0,51,0.00,,,0.00,weatherlink.com 1.10,2013-03-01 18:32:00,
2013-03-01 13:47:00,34.6,17.0,30.60,NW,315,15.0,18.0,49,0.00,,,0.00,weatherlink.com 1.10,2013-03-01 18:47:00,
2013-03-01 14:02:00,34.9,16.0,30.59,NW,316,18.0,26.0,47,0.00,,,0.00,weatherlink.com 1.10,2013-03-01 19:02:00,
2013-03-01 14:17:00,35.2,16.0,30.58,NNW,333,17.0,24.0,46,0.00,,,0.00,weatherlink.com 1.10,2013-03-01 19:17:00,
2013-03-01 14:47:00,35.8,17.0,30.56,NW,319,8.0,22.0,46,0.00,,,0.00,weatherlink.com 1.10,2013-03-01 19:47:00,
2013-03-01 15:02:00,36.1,17.0,30.55,WNW,297,11.0,16.0,47,0.00,,,0.00,weatherlink.com 1.10,2013-03-01 20:02:00,
2013-03-01 15:17:00,36.0,17.0,30.54,NW,314,11.0,19.0,46,0.00,,,0.00,weatherlink.com 1.10,2013-03-01 20:17:00,
2013-03-01 15:32:00,35.7,17.0,30.53,West,278,11.0,23.0,47,0.00,,,0.00,weatherlink.com 1.10,2013-03-01 20:32:00,
2013-03-01 15:47:00,36.5,15.0,30.53,NNW,328,16.0,30.0,42,0.00,,,0.00,weatherlink.com 1.10,2013-03-01 20:47:00,
2013-03-01 16:03:00,36.5,16.0,30.52,NW,316,13.0,21.0,43,0.00,,,0.00,weatherlink.com 1.10,2013-03-01 21:03:00,
2013-03-01 16:18:00,36.6,15.0,30.52,NW,316,9.0,23.0,42,0.00,,,0.00,weatherlink.com 1.10,2013-03-01 21:18:00,
2013-03-01 16:33:00,36.6,15.0,30.52,NW,325,18.0,24.0,41,0.00,,,0.00,weatherlink.com 1.10,2013-03-01 21:33:00,
2013-03-01 16:48:00,36.9,16.0,30.52,NW,321,12.0,27.0,43,0.00,,,0.00,weatherlink.com 1.10,2013-03-01 21:48:00,
2013-03-01 17:03:00,36.9,15.0,30.52,NW,317,14.0,19.0,41,0.00,,,0.00,weatherlink.com 1.10,2013-03-01 22:03:00,
2013-03-01 17:18:00,37.3,17.0,30.51,West,262,9.0,17.0,43,0.00,,,0.00,weatherlink.com 1.10,2013-03-01 22:18:00,
2013-03-01 17:33:00,37.7,16.0,30.51,WNW,291,10.0,17.0,41,0.00,,,0.00,weatherlink.com 1.10,2013-03-01 22:33:00,
2013-03-01 17:48:00,37.4,17.0,30.51,WNW,288,11.0,14.0,43,0.00,,,0.00,weatherlink.com 1.10,2013-03-01 22:48:00,
2013-03-01 18:03:00,37.1,16.0,30.50,WNW,300,13.0,20.0,43,0.00,,,0.00,weatherlink.com 1.10,2013-03-01 23:03:00,
2013-03-01 18:18:00,37.3,15.0,30.50,NW,322,15.0,22.0,40,0.00,,,0.00,weatherlink.com 1.10,2013-03-01 23:18:00,
2013-03-01 18:33:00,36.9,16.0,30.50,NW,311,18.0,20.0,42,0.00,,,0.00,weatherlink.com 1.10,2013-03-01 23:33:00,
2013-03-01 18:48:00,36.1,15.0,30.51,NW,313,15.0,21.0,43,0.00,,,0.00,weatherlink.com 1.10,2013-03-01 23:48:00,
2013-03-01 19:03:00,35.9,14.0,30.50,WNW,296,18.0,21.0,41,0.00,,,0.00,weatherlink.com 1.10,2013-03-02 00:03:00,
2013-03-01 19:18:00,35.1,14.0,30.50,West,277,11.0,18.0,42,0.00,,,0.00,weatherlink.com 1.10,2013-03-02 00:18:00,
2013-03-01 19:34:00,34.3,13.0,30.51,NW,314,9.0,21.0,41,0.00,,,0.00,weatherlink.com 1.10,2013-03-02 00:34:00,
2013-03-01 19:49:00,34.1,12.0,30.50,NW,310,13.0,21.0,40,0.00,,,0.00,weatherlink.com 1.10,2013-03-02 00:49:00,
2013-03-01 20:04:00,33.3,12.0,30.52,NW,322,16.0,18.0,41,0.00,,,0.00,weatherlink.com 1.10,2013-03-02 01:04:00,
2013-03-01 20:19:00,33.0,12.0,30.52,West,271,8.0,16.0,42,0.00,,,0.00,weatherlink.com 1.10,2013-03-02 01:19:00,
2013-03-01 20:34:00,32.3,12.0,30.51,WNW,294,14.0,17.0,43,0.00,,,0.00,weatherlink.com 1.10,2013-03-02 01:34:00,
2013-03-01 20:49:00,32.3,12.0,30.52,West,281,11.0,16.0,43,0.00,,,0.00,weatherlink.com 1.10,2013-03-02 01:49:00,
2013-03-01 21:04:00,33.2,11.0,30.53,NW,312,4.0,18.0,39,0.00,,,0.00,weatherlink.com 1.10,2013-03-02 02:04:00,
2013-03-01 21:19:00,32.6,11.0,30.54,WNW,294,9.0,14.0,40,0.00,,,0.00,weatherlink.com 1.10,2013-03-02 02:19:00,
2013-03-01 21:35:00,30.9,10.0,30.55,WNW,283,1.0,11.0,42,0.00,,,0.00,weatherlink.com 1.10,2013-03-02 02:35:00,
2013-03-01 21:49:00,29.2,10.0,30.55,WNW,284,3.0,8.0,44,0.00,,,0.00,weatherlink.com 1.10,2013-03-02 02:49:00,
2013-03-01 22:04:00,29.6,9.0,30.56,West,264,6.0,10.0,43,0.00,,,0.00,weatherlink.com 1.10,2013-03-02 03:04:00,
2013-03-01 22:19:00,28.7,9.0,30.56,NW,322,0.0,9.0,44,0.00,,,0.00,weatherlink.com 1.10,2013-03-02 03:19:00,
2013-03-01 22:34:00,28.8,9.0,30.55,West,267,3.0,13.0,43,0.00,,,0.00,weatherlink.com 1.10,2013-03-02 03:34:00,
2013-03-01 22:49:00,25.4,9.0,30.56,NNE,15,0.0,7.0,49,0.00,,,0.00,weatherlink.com 1.10,2013-03-02 03:49:00,
2013-03-01 23:04:00,23.3,8.0,30.58,SW,230,3.0,6.0,52,0.00,,,0.00,weatherlink.com 1.10,2013-03-02 04:04:00,
2013-03-01 23:19:00,24.0,8.0,30.58,WSW,248,5.0,5.0,51,0.00,,,0.00,weatherlink.com 1.10,2013-03-02 04:19:00,
2013-03-01 23:35:00,22.3,8.0,30.58,West,281,0.0,4.0,54,0.00,,,0.00,weatherlink.com 1.10,2013-03-02 04:35:00,
2013-03-01 23:50:00,19.8,7.0,30.59,West,276,1.0,4.0,57,0.00,,,0.00,weatherlink.com 1.10,2013-03-02 04:50:00,